Location: Alston School (historical)
(35.5076°N, 89.8251°W)
Time: 17:29:39
(UTC+00:00)

UNK - Visible Passes

Search period start: 14 March 2026 00:00
Search period end: 24 March 2026 00:00
Orbit: 655 x 672 km, 98.4° (Epoch: 14 March)

Date Brightness Start Highest point End Pass type
(mag) Time Alt. Az. Time Alt. Az. Time Alt. Az.
14 Mar 6.5 09:33:57 10° ESE 09:36:53 17° ENE 09:39:52 10° NNE visible
14 Mar 4.1 11:09:13 10° SSW 11:13:28 39° W 11:17:46 10° NNW visible
15 Mar 6.9 00:44:07 10° NW 00:46:25 14° WNW 00:48:42 10° W visible
15 Mar 5.3 10:03:02 10° SE 10:07:10 35° ENE 10:11:20 10° N visible
15 Mar 5.0 11:41:00 10° SW 11:44:09 18° W 11:47:19 10° NW visible
16 Mar 3.8 10:33:02 10° SSE 10:37:34 79° ENE 10:42:10 10° N visible
17 Mar 6.7 09:29:02 10° E 09:31:38 15° ENE 09:34:13 10° NNE visible
17 Mar 3.9 11:03:45 10° S 11:08:07 46° W 11:12:31 10° NNW visible
18 Mar 6.8 00:38:24 10° NNW 00:41:09 16° WNW 00:43:52 10° WSW visible
18 Mar 5.6 09:57:53 10° SE 10:01:52 31° ENE 10:05:53 10° N visible
18 Mar 4.9 11:35:19 10° SW 11:38:47 21° W 11:42:16 10° NW visible
19 Mar 4.0 10:27:44 10° SSE 10:32:15 67° ENE 10:36:48 10° N visible
20 Mar 6.8 09:24:14 10° E 09:26:21 13° ENE 09:28:28 10° NE visible
20 Mar 3.8 10:58:18 10° S 11:02:45 54° W 11:07:16 10° NNW visible
21 Mar 6.7 00:32:46 10° NNW 00:35:51 18° WNW 00:38:57 10° WSW visible
21 Mar 5.8 09:52:45 10° SE 09:56:34 27° ENE 10:00:24 10° NNE visible
21 Mar 4.7 11:29:40 10° SSW 11:33:23 25° W 11:37:08 10° NW visible
22 Mar 4.3 10:22:27 10° SSE 10:26:55 58° ENE 10:31:25 10° N visible
23 Mar 7.0 09:19:38 10° E 09:21:04 11° ENE 09:22:30 10° NE visible
23 Mar 3.7 10:52:52 10° S 10:57:23 64° WSW 11:01:57 10° NNW visible
